N578TB BIRK-BIKF

Flight info

Callsign N578TB
Flight time 0h 4m
Altitude 3500
Route ADOVA
Aircraft C172

Departure

Time 2026-05-03 20:15
Airport Reykjavík Domestic Airport (BIRK)

Arrival

Time 2026-05-03 20:19
Airport Keflavik International Airport (BIKF)
Time Latitude Longitude Altitude Speed Heading
2026-05-03 20:15 63.94730 -22.52612 802 ft 121 kts 174°
2026-05-03 20:15 63.94313 -22.53606 788 ft 93 kts 293°
2026-05-03 20:15 63.94829 -22.53633 782 ft 100 kts 49°
2026-05-03 20:15 63.94643 -22.52191 826 ft 110 kts 149°
2026-05-03 20:16 63.94030 -22.52592 864 ft 92 kts 253°
2026-05-03 20:16 63.94292 -22.53528 859 ft 84 kts 354°
2026-05-03 20:16 63.94851 -22.52827 799 ft 96 kts 28°
2026-05-03 20:16 63.95399 -22.51990 814 ft 92 kts 22°
2026-05-03 20:17 63.95982 -22.51452 811 ft 89 kts
2026-05-03 20:17 63.96607 -22.51502 744 ft 93 kts 350°
2026-05-03 20:17 63.97253 -22.51708 701 ft 93 kts 346°
2026-05-03 20:17 63.97879 -22.51965 713 ft 89 kts 347°
2026-05-03 20:18 63.98381 -22.52569 765 ft 84 kts 300°
2026-05-03 20:18 63.98506 -22.53959 674 ft 93 kts 278°
2026-05-03 20:18 63.98500 -22.55421 550 ft 92 kts 274°
2026-05-03 20:18 63.98495 -22.56834 428 ft 84 kts 275°
2026-05-03 20:19 63.98494 -22.58044 321 ft 66 kts 277°
2026-05-03 20:19 63.98500 -22.58959 245 ft 53 kts 279°
2026-05-03 20:19 63.98503 -22.59770 169 ft 48 kts 277°
2026-05-03 20:19 63.98510 -22.60373 154 ft 27 kts 270°
2026-05-03 20:20 63.98466 -22.60548 152 ft 11 kts 182°
2026-05-03 20:20 63.98395 -22.60552 153 ft 11 kts 181°
2026-05-03 20:20 63.98286 -22.60552 154 ft 19 kts 179°
2026-05-03 20:20 63.98132 -22.60552 157 ft 25 kts 179°
2026-05-03 20:21 63.97937 -22.60553 155 ft 30 kts 179°
2026-05-03 20:21 63.97710 -22.60551 153 ft 34 kts 178°
2026-05-03 20:21 63.97475 -22.60554 147 ft 30 kts 179°
2026-05-03 20:21 63.97372 -22.60316 148 ft 20 kts 113°
2026-05-03 20:22 63.97313 -22.59997 150 ft 20 kts 112°
2026-05-03 20:22 63.97373 -22.59833 159 ft 14 kts 15°
2026-05-03 20:22 63.97472 -22.59811 164 ft 13 kts
2026-05-03 20:22 63.97505 -22.59773 167 ft 0 kts 306°